Voreifelwetter - Wetterstation Drove - Standort 5043'47" - 0630'49"
Wetterdaten: aktuell Montag, 17.02.2020 09:45
Datum Zeit Temp. A. Feuchte A. Luftdruck Regen Wind Richtung Richtung Sonnenschein Helligkeit Taupunkt Windchill
17.02.2020 09:45 8,0 C 75 % 1011,9 hPa 0,0 mm 25,6 km/h (4 Bft) W-SW67.5 250 0 min 6,43 klux 3,8 C 4,3 C
17.02.2020 09:30 7,9 C 75 % 1011,9 hPa 0,0 mm 24,4 km/h (4 Bft) W67.5 260 0 min 5,20 klux 3,7 C 4,3 C
17.02.2020 09:15 7,9 C 76 % 1011,9 hPa 0,0 mm 31,2 km/h (5 Bft) W-SW67.5 255 0 min 3,90 klux 3,9 C 3,7 C
17.02.2020 09:00 7,7 C 76 % 1011,9 hPa 0,0 mm 28,8 km/h (4 Bft) W67.5 275 0 min 3,82 klux 3,7 C 3,7 C
17.02.2020 08:45 7,6 C 76 % 1011,9 hPa 0,0 mm 25,6 km/h (4 Bft) W67.5 260 0 min 1,88 klux 3,6 C 3,8 C
17.02.2020 08:30 7,5 C 76 % 1011,9 hPa 0,0 mm 22,3 km/h (4 Bft) W67.5 260 0 min 1,44 klux 3,5 C 4,0 C
17.02.2020 08:15 7,6 C 76 % 1011,9 hPa 0,0 mm 24,0 km/h (4 Bft) W67.5 260 0 min 841 lux 3,6 C 3,9 C
17.02.2020 08:00 7,5 C 76 % 1011,9 hPa 0,0 mm 20,7 km/h (4 Bft) W-SW67.5 255 0 min 267 lux 3,5 C 4,1 C
17.02.2020 07:45 7,5 C 76 % 1011,9 hPa 0,0 mm 20,2 km/h (4 Bft) W67.5 270 0 min 108 lux 3,5 C 4,2 C
17.02.2020 07:30 7,5 C 76 % 1011,9 hPa 0,0 mm 27,7 km/h (4 Bft) W45 270 0 min 61 lux 3,5 C 3,5 C
17.02.2020 07:15 7,4 C 76 % 1011,9 hPa 0,0 mm 23,5 km/h (4 Bft) W-SW67.5 255 0 min 0 lux 3,5 C 3,7 C
17.02.2020 07:00 7,5 C 76 % 1010,9 hPa 0,0 mm 27,5 km/h (4 Bft) W45 270 0 min 0 lux 3,5 C 3,5 C
17.02.2020 06:45 7,6 C 76 % 1010,9 hPa 0,0 mm 26,2 km/h (4 Bft) W67.5 270 0 min 0 lux 3,6 C 3,8 C
17.02.2020 06:30 7,6 C 76 % 1011,9 hPa 0,0 mm 24,2 km/h (4 Bft) W67.5 275 0 min 0 lux 3,6 C 3,9 C
17.02.2020 06:15 7,7 C 76 % 1011,9 hPa 0,0 mm 22,6 km/h (4 Bft) W-NW67.5 285 0 min 0 lux 3,7 C 4,2 C
17.02.2020 06:00 7,8 C 75 % 1011,9 hPa 0,0 mm 24,8 km/h (4 Bft) W-NW67.5 285 0 min 0 lux 3,7 C 4,1 C
17.02.2020 05:45 7,8 C 75 % 1011,9 hPa 0,0 mm 24,0 km/h (4 Bft) W67.5 280 0 min 0 lux 3,7 C 4,2 C
17.02.2020 05:30 7,9 C 76 % 1011,9 hPa 0,0 mm 27,1 km/h (4 Bft) W67.5 265 0 min 0 lux 3,9 C 4,1 C
17.02.2020 05:15 8,0 C 75 % 1011,9 hPa 0,0 mm 27,6 km/h (4 Bft) W-NW67.5 295 0 min 0 lux 3,8 C 4,2 C
17.02.2020 05:00 8,0 C 75 % 1010,8 hPa 0,0 mm 30,5 km/h (5 Bft) NW45 310 0 min 0 lux 3,8 C 3,9 C
17.02.2020 04:45 8,0 C 74 % 1010,8 hPa 0,0 mm 31,5 km/h (5 Bft) W-NW67.5 285 0 min 0 lux 3,7 C 3,9 C
17.02.2020 04:30 8,0 C 75 % 1010,8 hPa 0,0 mm 28,1 km/h (4 Bft) W-NW67.5 300 0 min 0 lux 3,8 C 4,1 C
17.02.2020 04:15 8,1 C 75 % 1010,8 hPa 0,0 mm 34,8 km/h (5 Bft) W-NW45 290 0 min 0 lux 3,9 C 3,8 C
17.02.2020 04:00 8,2 C 75 % 1010,8 hPa 0,0 mm 31,7 km/h (5 Bft) W-NW67.5 295 0 min 0 lux 4,0 C 4,1 C
17.02.2020 03:45 8,1 C 75 % 1010,8 hPa 0,0 mm 28,7 km/h (4 Bft) NW45 305 0 min 0 lux 3,9 C 4,2 C
17.02.2020 03:30 8,1 C 75 % 1009,8 hPa 0,0 mm 33,9 km/h (5 Bft) W-NW67.5 290 0 min 0 lux 3,9 C 3,8 C
17.02.2020 03:15 8,1 C 75 % 1009,8 hPa 0,0 mm 29,8 km/h (5 Bft) W-NW67.5 285 0 min 0 lux 3,9 C 4,1 C
17.02.2020 03:00 8,2 C 75 % 1009,8 hPa 0,0 mm 29,6 km/h (5 Bft) W-NW67.5 285 0 min 0 lux 4,0 C 4,3 C
17.02.2020 02:45 8,2 C 76 % 1009,8 hPa 0,0 mm 32,7 km/h (5 Bft) W-NW67.5 300 0 min 0 lux 4,2 C 4,0 C
17.02.2020 02:30 8,2 C 77 % 1009,8 hPa 0,0 mm 35,1 km/h (5 Bft) W-NW67.5 300 0 min 0 lux 4,4 C 3,9 C
17.02.2020 02:15 8,2 C 77 % 1009,8 hPa 0,0 mm 41,4 km/h (6 Bft) W-NW67.5 295 0 min 0 lux 4,4 C 3,5 C
17.02.2020 02:00 8,2 C 77 % 1008,8 hPa 0,0 mm 31,1 km/h (5 Bft) W-NW45 295 0 min 0 lux 4,4 C 4,1 C
17.02.2020 01:45 8,3 C 78 % 1008,8 hPa 0,0 mm 34,7 km/h (5 Bft) W-NW45 295 0 min 0 lux 4,7 C 4,0 C
17.02.2020 01:30 8,2 C 79 % 1007,8 hPa 0,0 mm 24,2 km/h (4 Bft) W67.5 275 0 min 0 lux 4,8 C 4,7 C
17.02.2020 01:15 8,0 C 83 % 1007,8 hPa 0,0 mm 24,8 km/h (4 Bft) W-NW45 285 0 min 0 lux 5,3 C 4,4 C
17.02.2020 01:00 8,0 C 84 % 1007,8 hPa 0,0 mm 24,7 km/h (4 Bft) W45 280 0 min 0 lux 5,5 C 4,4 C
17.02.2020 00:45 8,0 C 84 % 1007,8 hPa 0,0 mm 27,8 km/h (4 Bft) W-NW45 290 0 min 0 lux 5,5 C 4,1 C
17.02.2020 00:30 8,0 C 84 % 1006,7 hPa 0,1 mm 28,3 km/h (4 Bft) W-NW45 300 0 min 0 lux 5,5 C 4,1 C
17.02.2020 00:15 8,1 C 86 % 1006,7 hPa 0,3 mm 30,7 km/h (5 Bft) W-NW45 290 0 min 0 lux 5,9 C 4,0 C
17.02.2020 00:00 8,2 C 86 % 1006,7 hPa 0,4 mm 27,0 km/h (4 Bft) W-NW45 300 0 min 0 lux 6,0 C 4,5 C
_ Min-Zeit 07:15 04:45 00:00 - 07:45 - - - - 07:15 02:15
Minimum _ 7,4 C 74 % 1006,7 hPa - 20,2 km/h (4 Bft) - - - - 3,5 C 3,5 C
_ Max-Zeit 01:45 00:00 07:15 00:00 02:15 - - 00:00 09:45 00:00 01:30
Maximum _ 8,3 C 86 % 1011,9 hPa 0,4 mm 41,4 km/h
W-NW (6 Bft)
- - 0 min 6,43 klux 6,0 C 4,7 C
Durchschnitt _ 7,9 C 77 % 1010,4 hPa #0,8 mm 28,0 km/h (4 Bft) W-NW - #0 min. 0,599 klux 4,1 C 4,0 C